Hourly Data Report for June 30, 2020

TRENTON A
ONTARIO
Current Station Operator: DND

44°04'10.000" N
77°20'17.000" W
86.30 m
6158875
71621
YTR

Download Data

Hourly Data (June 2020)
Hourly Data Report for June 30, 2020
TIME
LST
Temp Definition
°C
Dew Point Definition
°C
Rel Hum Definition
%
Precip. Amount Definition
mm

Wind Dir Definition
10's deg

Wind Spd Definition
km/h
Visibility Definition
km
Stn Press Definition
kPa
Hmdx Definition


Wind Chill Definition


Weather Definition


00:00 18.9 17.0 89   2 5 24.1 100.50     Mostly Cloudy
01:00 18.2 16.9 92   3 5 24.1 100.50     Mainly Clear
02:00 17.8 16.6 93   4 5 24.1 100.50     Mainly Clear
03:00 17.7 16.4 92   4 9 24.1 100.49     Clear
04:00 18.0 16.1 89   2 11 24.1 100.54     Clear
05:00 17.9 16.1 89   5 11 24.1 100.55     Mostly Cloudy
06:00 19.6 16.7 83   5 11 24.1 100.56     Mainly Clear
07:00 21.7 16.9 74   4 15 24.1 100.56 27   Mainly Clear
08:00 23.0 17.2 70   5 13 24.1 100.59 28   Mainly Clear
09:00 25.3 17.1 60   6 21 24.1 100.58 31   Mostly Cloudy
10:00 24.4 16.7 62   4 17 24.1 100.57 29   Mainly Clear
11:00 27.4 17.2 54   8 13 24.1 100.53 33   Mainly Clear
12:00 27.2 15.9 50   3 18 24.1 100.49 32   Mostly Cloudy
13:00 26.3 17.2 57   9 13 24.1 100.49 32   Mostly Cloudy
14:00 22.4 17.3 73   23 18 24.1 100.51 28   Rain Showers
15:00 23.4 17.7 70   23 15 24.1 100.45 29   Mostly Cloudy
16:00 24.7 18.4 68   20 15 24.1 100.41 31   Mostly Cloudy
17:00 23.8 18.0 70   21 9 24.1 100.38 30   Mostly Cloudy
18:00 22.3 18.2 78   18 9 24.1 100.41 28   Mostly Cloudy
19:00 21.6 17.8 79   22 5 24.1 100.46 27   Mostly Cloudy
20:00 21.2 17.8 81   17 4 24.1 100.44 27   Mostly Cloudy
21:00 20.6 18.3 87   16 4 24.1 100.48 27   Mostly Cloudy
22:00 19.0 17.8 93   5 4 24.1 100.45     Mainly Clear
23:00 18.1 17.4 96     0 24.1 100.45     Mainly Clear

Notes on Data Quality.

Legend

  • E = Estimated
  • M = Missing
  • NA = Not Available*
  • [empty] = Indicates an unobserved value
Date modified: